Location: Artiguedieu
(43.5000°N, 0.5454°E)
Time: 20:03:42
(UTC+00:00)

Transit 2A - Pass Details

Date: 25 July 2021
Orbit: 594 x 964 km, 66.7° (Epoch: 28 September)

Event Time Altitude Azimuth Distance (km) Brightness Sun altitude
Rises 16:10:38 0° 331° (NNW) 3,199 9.5 33.7°
Reaches altitude 10° 16:12:57 10° 334° (NNW) 2,328 8.9 33.3°
Maximum altitude 16:18:17 63° 56° (NE) 926 6.6 32.4°
Drops below altitude 10° 16:24:10 10° 138° (SE) 2,557 8.5 31.3°
Sets 16:26:48 0° 141° (SE) 3,539 9.1 30.8°
